Indianapolis Mount Comfort, IN

7:11 AM EDT on September 18, 2019 (GMT -0400)
Mount Comfort

Weather History for KMQJ - May, 2019

Change the Weather History Date:

Monday, May 20, 2019

  Actual Average (KEYE) Record (KEYE)
Temperature  
Mean Temperature 53 °F -  
Max Temperature 60 °F 69 °F 87 °F (2012)
Min Temperature 46 °F 51 °F 39 °F (2002)
Degree Days  
Heating Degree Days 12    
Growing Degree Days 3 (Base 50)    
Moisture  
Dew Point 52 °F    
Average Humidity 89    
Maximum Humidity 100    
Minimum Humidity 77    
Precipitation  
Precipitation 0.00 in - - ()
Sea Level Pressure  
Sea Level Pressure 30.02 in    
Wind  
Wind Speed 10 mph (WNW)    
Max Wind Speed 17 mph    
Max Gust Speed 20 mph    
Visibility 10 miles    
Events      
Averages and records for this station are not official NWS values.
T = Trace of Precipitation, MM = Missing Value Source: NWS Daily Summary

Daily Weather History Graph

Daily Weather History Graph

Search for Another Location

Airport or City:

Astronomy

May. 20, 2019 Rise Set
Actual Time 6:24 AM EDT 8:56 PM EDT
Civil Twilight 5:53 AM EDT 9:27 PM EDT
Nautical Twilight 5:15 AM EDT 10:05 PM EDT
Astronomical Twilight 4:32 AM EDT 10:49 PM EDT
Moon 10:56 PM EDT (5/20) 7:52 AM EDT (5/20)
Length of Visible Light 15h 33m
Length of Day
14h 31m
Waning Gibbous, 96% of the Moon is Illuminated
May 20
Waning Gibbous
May 26
Last Quarter
Jun 3
New
Jun 10
First Quarter
Jun 17
Full

Hourly Weather History & Observations

Time (EDT) Temp. Windchill Dew Point Humidity Pressure Visibility Wind Dir Wind Speed Gust Speed Precip Events Conditions
12:15 AM 60.8 °F - 60.8 °F 100% 29.85 in 10.0 mi SW 6.9 mph - N/A   Clear
12:35 AM 60.8 °F - 60.8 °F 100% 29.85 in 10.0 mi SW 8.1 mph - N/A   Clear
12:55 AM 60.8 °F - 60.8 °F 100% 29.86 in 10.0 mi SW 8.1 mph - N/A   Clear
1:15 AM 60.8 °F - 60.8 °F 100% 29.87 in 10.0 mi WSW 10.4 mph - N/A   Clear
1:35 AM 60.8 °F - 60.8 °F 100% 29.88 in 10.0 mi West 10.4 mph - N/A   Scattered Clouds
1:55 AM 60.8 °F - 60.8 °F 100% 29.89 in 10.0 mi West 12.7 mph - N/A   Scattered Clouds
2:15 AM 60.8 °F - 60.8 °F 100% 29.89 in 10.0 mi WNW 17.3 mph - N/A   Scattered Clouds
2:35 AM 59.0 °F - 57.2 °F 94% 29.89 in 10.0 mi WNW 10.4 mph - N/A   Scattered Clouds
2:55 AM 59.0 °F - 57.2 °F 94% 29.90 in 10.0 mi West 9.2 mph - N/A   Clear
3:15 AM 59.0 °F - 55.4 °F 88% 29.90 in 10.0 mi West 11.5 mph - N/A   Clear
3:35 AM 57.2 °F - 55.4 °F 94% 29.90 in 10.0 mi West 11.5 mph - N/A   Clear
3:55 AM 57.2 °F - 53.6 °F 88% 29.90 in 10.0 mi West 12.7 mph - N/A   Clear
4:15 AM 55.4 °F - 53.6 °F 94% 29.92 in 10.0 mi West 8.1 mph - N/A   Clear
4:35 AM 55.4 °F - 53.6 °F 94% 29.92 in 10.0 mi West 6.9 mph - N/A   Clear
4:55 AM 55.4 °F - 53.6 °F 94% 29.92 in 10.0 mi West 8.1 mph - N/A   Clear
5:15 AM 55.4 °F - 53.6 °F 94% 29.93 in 10.0 mi West 8.1 mph - N/A   Clear
5:35 AM 55.4 °F - 53.6 °F 94% 29.93 in 10.0 mi WNW 9.2 mph - N/A   Clear
5:55 AM 53.6 °F - 53.6 °F 100% 29.94 in 10.0 mi West 6.9 mph - N/A   Scattered Clouds
6:15 AM 51.8 °F - 51.8 °F 100% 29.94 in 10.0 mi West 4.6 mph - N/A   Scattered Clouds
6:35 AM 51.8 °F - 51.8 °F 100% 29.96 in 10.0 mi West 6.9 mph - N/A   Clear
6:55 AM 51.8 °F - 51.8 °F 100% 29.96 in 10.0 mi West 5.8 mph - N/A   Clear
7:15 AM 53.6 °F - 53.6 °F 100% 29.96 in 10.0 mi WSW 5.8 mph - N/A   Clear
7:35 AM 53.6 °F - 53.6 °F 100% 29.98 in 10.0 mi WSW 6.9 mph - N/A   Clear
7:55 AM 55.4 °F - 53.6 °F 94% 29.98 in 10.0 mi West 10.4 mph - N/A   Clear
8:15 AM 55.4 °F - 51.8 °F 88% 29.99 in 10.0 mi West 12.7 mph - N/A   Clear
8:35 AM 57.2 °F - 53.6 °F 88% 29.99 in 10.0 mi West 12.7 mph - N/A   Mostly Cloudy
8:55 AM 55.4 °F - 53.6 °F 94% 29.99 in 10.0 mi West 12.7 mph - N/A   Overcast
9:15 AM 55.4 °F - 51.8 °F 88% 30.00 in 10.0 mi West 9.2 mph - N/A   Overcast
9:36 AM 57.2 °F - 51.8 °F 82% 30.01 in 10.0 mi West 11.5 mph - N/A   Overcast
9:55 AM 57.2 °F - 51.8 °F 82% 30.02 in 10.0 mi West 15.0 mph 19.6 mph N/A   Overcast
10:15 AM 57.2 °F - 51.8 °F 82% 30.02 in 10.0 mi West 17.3 mph - N/A   Mostly Cloudy
10:35 AM 59.0 °F - 51.8 °F 77% 30.03 in 10.0 mi WNW 13.8 mph - N/A   Mostly Cloudy
10:55 AM 57.2 °F - 51.8 °F 82% 30.03 in 10.0 mi West 17.3 mph - N/A   Overcast
11:15 AM 57.2 °F - 51.8 °F 82% 30.03 in 10.0 mi WNW 12.7 mph 18.4 mph N/A   Overcast
11:35 AM 57.2 °F - 51.8 °F 82% 30.04 in 10.0 mi WNW 12.7 mph - N/A   Overcast
11:56 AM 57.2 °F - 51.8 °F 82% 30.05 in 10.0 mi WNW 11.5 mph 17.3 mph N/A   Overcast
12:15 PM 57.2 °F - 51.8 °F 82% 30.06 in 10.0 mi WNW 12.7 mph 17.3 mph N/A   Overcast
12:35 PM 57.2 °F - 51.8 °F 82% 30.06 in 10.0 mi WNW 10.4 mph - N/A   Overcast
12:55 PM 59.0 °F - 53.6 °F 82% 30.06 in 10.0 mi West 10.4 mph - N/A   Overcast
1:15 PM 59.0 °F - 53.6 °F 82% 30.07 in 10.0 mi West 10.4 mph - N/A   Overcast
1:35 PM 59.0 °F - 53.6 °F 82% 30.07 in 10.0 mi West 10.4 mph - N/A   Overcast
1:55 PM 59.0 °F - 53.6 °F 82% 30.07 in 10.0 mi West 10.4 mph - N/A   Overcast
2:15 PM 59.0 °F - 53.6 °F 82% 30.07 in 10.0 mi WNW 11.5 mph 16.1 mph N/A   Overcast
2:35 PM 59.0 °F - 51.8 °F 77% 30.07 in 10.0 mi WNW 15.0 mph - N/A   Overcast
2:55 PM 59.0 °F - 51.8 °F 77% 30.07 in 10.0 mi WNW 11.5 mph 17.3 mph N/A   Overcast
3:15 PM 59.0 °F - 51.8 °F 77% 30.07 in 10.0 mi WNW 11.5 mph - N/A   Overcast
3:35 PM 57.2 °F - 53.6 °F 88% 30.07 in 10.0 mi NNW 10.4 mph - N/A   Overcast
3:55 PM 57.2 °F - 53.6 °F 88% 30.08 in 10.0 mi NW 12.7 mph 17.3 mph N/A   Overcast
4:16 PM 57.2 °F - 51.8 °F 82% 30.09 in 10.0 mi NNW 9.2 mph - N/A   Overcast
4:35 PM 55.4 °F - 51.8 °F 88% 30.09 in 10.0 mi NW 11.5 mph - N/A   Overcast
4:56 PM 57.2 °F - 51.8 °F 82% 30.09 in 10.0 mi WNW 13.8 mph 18.4 mph N/A   Overcast
5:15 PM 57.2 °F - 51.8 °F 82% 30.09 in 10.0 mi WNW 10.4 mph - N/A   Overcast
5:35 PM 57.2 °F - 51.8 °F 82% 30.09 in 10.0 mi NW 11.5 mph - N/A   Overcast
5:55 PM 57.2 °F - 50.0 °F 77% 30.10 in 10.0 mi NW 10.4 mph 16.1 mph N/A   Overcast
6:15 PM 57.2 °F - 50.0 °F 77% 30.11 in 10.0 mi NW 12.7 mph - N/A   Overcast
6:35 PM 55.4 °F - 50.0 °F 82% 30.10 in 10.0 mi NW 6.9 mph - N/A   Overcast
6:55 PM 55.4 °F - 50.0 °F 82% 30.11 in 10.0 mi NNW 10.4 mph - N/A   Overcast
7:15 PM 55.4 °F - 50.0 °F 82% 30.10 in 10.0 mi NNW 10.4 mph - N/A   Overcast
7:35 PM 55.4 °F - 50.0 °F 82% 30.11 in 10.0 mi NNW 9.2 mph - N/A   Overcast
7:55 PM 53.6 °F - 50.0 °F 88% 30.10 in 10.0 mi North 11.5 mph - N/A   Overcast
8:16 PM 53.6 °F - 50.0 °F 88% 30.11 in 10.0 mi North 10.4 mph - N/A   Overcast
8:35 PM 51.8 °F - 50.0 °F 94% 30.11 in 10.0 mi North 10.4 mph - N/A   Overcast
8:55 PM 51.8 °F - 48.2 °F 88% 30.09 in 10.0 mi North 11.5 mph - N/A   Overcast
9:15 PM 51.8 °F - 48.2 °F 88% 30.08 in 10.0 mi NNE 11.5 mph - N/A   Overcast
9:35 PM 50.0 °F - 46.4 °F 87% 30.09 in 10.0 mi North 9.2 mph - N/A   Overcast
9:55 PM 50.0 °F - 48.2 °F 94% 30.10 in 10.0 mi North 8.1 mph - N/A   Mostly Cloudy
10:15 PM 48.2 °F - 46.4 °F 93% 30.11 in 10.0 mi North 9.2 mph - N/A   Scattered Clouds
10:36 PM 48.2 °F - 46.4 °F 93% 30.11 in 10.0 mi North 8.1 mph - N/A   Clear
10:55 PM 48.2 °F - 44.6 °F 87% 30.12 in 10.0 mi North 9.2 mph - N/A   Clear
11:15 PM 48.2 °F - 46.4 °F 93% 30.12 in 10.0 mi North 6.9 mph - N/A   Clear
11:35 PM 46.4 °F 43.5 °F 44.6 °F 93% 30.13 in 10.0 mi North 5.8 mph - N/A   Clear
11:55 PM 46.4 °F 42.9 °F 44.6 °F 93% 30.12 in 10.0 mi North 6.9 mph - N/A   Clear